Starlink 11401

operational
NORAD ID: 61876 Int'l Des: 2024-204 Owner: SPXS Country: US Constellation: starlink
LEOCIRCULAR

About Starlink 11401

Description loading...

Live Position

Loading 3D Globe...

Upcoming Passes

Altitude History

Altitude vs Time

uPlot chart will show altitude changes over time

Two-Line Element Set

1 61876U 24204C 25257.98067141 .00000987 00000-0 12997-4 0 9993
2 61876 53.1601 142.7344 0001002 94.7744 265.3388 15.69717534 49319
Epoch: Sep 14, 2025 • Age: 14 hours

Current Status

Altitude 373.7 km
Velocity 7.68 km/s
Sub-Earth Point -40.65°S, 90.42°W
Launch Date Nov 9, 2024
Age 0.8 years
Type internet

Technical Details

Classification Payload
Mass 960.00 kg
Dry Mass 910.00 kg
Total Mass 960.00 kg
Length 0.30 m
Diameter 4.10 m
Span 29.00 m
Shape Box + pan
Manufacturer SPXS
Bus Type Starlink V2MD
Phase Status In Orbit
Owner/State SPXS/US

Large Constellations

Loading constellations...